Dean International
Flight School

Career Spotlight

Mika

Mika

Congratulations to Mika from Khazakstan. She recently sent us this photo of her flying an Airbus airliner.

More...
Mika's Success Story
close

Congratulations to Mika from Khazakstan. She recently sent us this photo of her flying an Airbus airliner.

Mario

Mario

My dreams could not have been realized if I wouldn't have been part of the Dean International family.

More...
Mario's Success Story
close

"My dreams could not have been realized if I wouldn't have been part of the Dean International family. Thank you Robert, thanks to all my co-workers, and thanks to all of my students!"

Fernando

Fernando

I am now working as a First Officer at TACA and am enjoying every moment of it.

More...
Fernando's Success Story
close

"Will never forget my time of flight training at Dean International. I am now working as a First Officer at TACA and am enjoying every moment of it."

Alvaro

Alvaro

Because of the flight time I was able to built while instructing, I got the experience needed to apply to an airline in Colombia.

More...
Alvaro's Success Story
close

Dean alumnus Alvaro Londoño currently flies with Tampa Cargo. He says of his experience at Dean: "I want to take this opportunity to thank you for giving me the chance to build my experience and expand my knowledge in Dean International. Because of the flight time I was able to built flight instructing, I got the experience needed to apply to an airline in Colombia."

Ralph

Ralph

Every Aruban student of Dean International has made it into Tiara Air Aruba, that is very nice.

More...
Ralph's Success Story
close

"Next to me is my Co-Pilot, Elison. This picture was taken on our first flight together, which was almost exactly 5 years after I finished at Dean International. [...] Every Aruban student of Dean International has made it into Tiara Air Aruba. [...] The future looks bright here in Aruba."

Rohaan

Rohaan

The [..] staff will all work diligently to help you finish your certificates as safely and efficiently as possible.

More...
Rohaan's Success Story
close

After receiving very hard times from other flight schools [...], I came to Dean International where Robert Dean personally sat down with me and gave me a financial and chronological look into how much remained to finish my private pilot certificate. Through his hard efforts as an instructor and mentor, I was able to finish my private pilot certificate within one week.

Welcome to Dean International

In over two decades, Dean International has educated over 7,000 pilots from all over the world, including over 1,000 students from India alone. By offering a great training experience, a friendly service staff, an ample variety of aircraft, and by improving constantly, we have become one of the largest, most prestigious FAA 141-approved flight schools in North America. Located in Miami, Florida, USA, our flight school offers an ideal location for year-round, "learn to fly" weather, flight training. Dean International is not only well-equipped to provide services to professional trainees but also caters to General Aviation renters. Visit or contact our headquarters at Kendall-Tamiami Executive Airport located in Miami, FL today to learn more about us, or simply read more about our programs if you are an international student interested in joining our school.

Local Airport Information
TAF FOR KTMB (Issued: Fri, September 19th 2014 3:48 AM UTC)
TAF
      AMD KTMB 190246Z 1903/1924 VRB03KT P6SM FEW070
      FM191500 25007KT P6SM SCT030
      FM191900 23006KT P6SM SCT030 PROB30 1919/1921 6SM TS BKN030CB
     
METAR FOR KTMB (Issued: Fri, September 19th 2014 2:53 AM UTC):
KTMB 190253Z 22004KT 10SM CLR 27/23 A2994 RMK AO2 SLP139 T02670228 51014

This weather information is provided by the National Weather Service.
It is automatically refreshed every three minutes.
TAF FOR KHST (Issued: Fri, September 19th 2014 12:09 AM UTC)
TAF TAF KHST 1900/2006 VRB06KT 9999 SCT030 QNH2989INS
      BECMG 1914/1915 25006KT 8000 -SHRA BKN030 QNH2992INS
      TEMPO 1918/1922 VRB10G20KT 4800 -TSRA BKN030CB
      BECMG 1922/1923 VRB06KT 9999 NSW SCT040 QNH2990INS TX32/1920Z TN23/1911Z
     
METAR FOR KHST (Issued: Fri, September 19th 2014 2:58 AM UTC):
KHST 190258Z AUTO 23002KT 10SM CLR 25/23 A2994 RMK AO2 SLP142 T02460231 52011

This weather information is provided by the National Weather Service.
It is automatically refreshed every three minutes.
TAF FOR KOPF (Issued: Fri, September 19th 2014 3:39 AM UTC)
TAF
      AMD KOPF 190238Z 1903/1924 06004KT P6SM VCSH FEW030 BKN070
      TEMPO 1903/1904 SHRA
      FM190500 11003KT P6SM SCT250
      FM191900 23006KT P6SM SCT030 PROB30 1919/1921 6SM TS BKN030CB
     
METAR FOR KOPF (Issued: Fri, September 19th 2014 2:53 AM UTC):
KOPF 190253Z AUTO 27004KT 10SM FEW031 BKN075 OVC090 26/23 A2994 RMK AO2 SLP141 T02560233 51018

This weather information is provided by the National Weather Service.
It is automatically refreshed every three minutes.
TAF FOR KMIA (Issued: Fri, September 19th 2014 3:51 AM UTC)
TAF
      AMD KMIA 190245Z 1903/1924 20006KT P6SM VCSH FEW035 BKN070
      FM190330 VRB03KT P6SM SCT250
      FM191900 23006KT P6SM SCT030 PROB30 1919/1921 6SM TS BKN030CB
     
METAR FOR KMIA (Issued: Fri, September 19th 2014 2:53 AM UTC):
KMIA 190253Z 20005KT 10SM BKN090 BKN250 27/23 A2994 RMK AO2 SLP139 60001 T02670228 51015

This weather information is provided by the National Weather Service.
It is automatically refreshed every three minutes.
Design by Ariel Llizo
© Dean International Inc. 2012